Strona główna
METAR-TAF:

METAR-TAF

Lotnisko :

Hazen, Dakota Północna, Stany Zjednoczone

Szerokość geograficzna: 47-17-24N, Długość geograficzna: 101-34-52W, wysokość: 553 m

Aktualna obserwacja pogody

Raport powstał 15 minut temu, godzina 04:55 UTC
Cisza
Temperatura -8°C
Wilgotność 100%
Ciśnienie 1016 hPa
Widzialność: 8.0 km
bezchmurnie
zamglenie

METAR: KHZE 070455Z AUTO 00000KT 5SM BR CLR M08/M08 A3001 RMK AO2

czas: 23:10 (05:10 UTC)


TAF: brakujący

Obserwacja i prognoza pogody dla ponad 4000 lotnisk (raport METAR i TAF).

Dostępne stacje oznaczono żółtymi i czerwonymi punktami na mapie.

Najedź kursorem aby zobaczyć nazwę stacji.

Kliknij aby zobaczyć obserwacje i prognozy pogody.

Aby zmienić mapę: kliknij na zielony przycisk z czarnym krzyżykiem, aby powiększyć; na zielony przycisk z myślnikiem, aby pomniejszyć; na zielone strzałki, aby przejść do map sąsiednich.


METAR-TAF: